Weather History for Poteau, OK

Change the Weather History Date:

Monday, December 17, 2012

  Actual Average (KFSM) Record (KFSM)
Temperature  
Mean Temperature 44 °F 41 °F  
Max Temperature 55 °F 51 °F 76 °F (2006)
Min Temperature 32 °F 31 °F 9 °F (1901)
Degree Days  
Heating Degree Days 22 24  
Month to date heating degree days 380  
Since 1 July heating degree days 945  
Moisture  
Dew Point 39 °F    
Average Humidity 83    
Maximum Humidity 100    
Minimum Humidity 51    
Precipitation  
Precipitation 0.00 in 0.10 in 2.55 in (1995)
Month to date precipitation 1.96  
Year to date precipitation 44.13  
Sea Level Pressure  
Sea Level Pressure 29.81 in    
Wind  
Wind Speed 2 mph (West)    
Max Wind Speed 15 mph    
Max Gust Speed 20 mph    
Visibility 8 miles    
Events Rain    
T = Trace of Precipitation, MM = Missing Value Source: NWS Daily Summary

Daily Weather History Graph

Daily Weather History Graph

Search for Another Location

Airport:

Trip Planner

Search our weather history database for the weather conditions in past years. The results will help you decide how hot, cold, wet, or windy it might be!

Date:

Astronomy

Dec. 17, 2012 Rise Set
Actual Time 7:20 AM CST 5:09 PM CST
Civil Twilight 6:52 AM CST 5:37 PM CST
Nautical Twilight 6:20 AM CST 6:08 PM CST
Astronomical Twilight 5:49 AM CST 6:39 PM CST
Moon 10:39 AM CST (12/17) 10:20 PM CST (12/17)
Length of Visible Light 10h 44m
Length of Day
9h 48m
Waxing Crescent, 25% of the Moon is Illuminated
Dec 17
Waxing Crescent
Dec 19
First Quarter
Dec 28
Full
Jan 4
Last Quarter
Jan 11
New

Hourly Weather History & Observations

Time (CST) Temp. Windchill Dew Point Humidity Pressure Visibility Wind Dir Wind Speed Gust Speed Precip Events Conditions
12:15 AM 50.0 °F - 42.8 °F 76% 29.75 in 10.0 mi Calm Calm - N/A   Clear
12:35 AM 50.0 °F - 42.8 °F 76% 29.74 in 10.0 mi Calm Calm - N/A   Clear
12:55 AM 46.4 °F - 42.8 °F 87% 29.73 in 10.0 mi Calm Calm - N/A   Scattered Clouds
1:15 AM 46.4 °F - 41.0 °F 81% 29.71 in 10.0 mi Calm Calm - N/A   Scattered Clouds
1:35 AM 44.6 °F - 41.0 °F 87% 29.72 in 10.0 mi Calm Calm - N/A   Mostly Cloudy
1:55 AM 46.4 °F - 41.0 °F 81% 29.71 in 10.0 mi Calm Calm - N/A   Mostly Cloudy
2:15 AM 44.6 °F - 41.0 °F 87% 29.72 in 10.0 mi Calm Calm - N/A   Mostly Cloudy
2:35 AM 42.8 °F - 41.0 °F 93% 29.71 in 10.0 mi Calm Calm - N/A   Scattered Clouds
2:55 AM 42.8 °F - 39.2 °F 87% 29.71 in 10.0 mi Calm Calm - N/A   Scattered Clouds
3:15 AM 42.8 °F - 41.0 °F 93% 29.71 in 10.0 mi Calm Calm - N/A   Mostly Cloudy
3:35 AM 42.8 °F - 41.0 °F 93% 29.70 in 10.0 mi Calm Calm - N/A   Overcast
3:55 AM 42.8 °F - 41.0 °F 93% 29.72 in 10.0 mi Calm Calm - N/A   Overcast
4:15 AM 44.6 °F - 41.0 °F 87% 29.74 in 10.0 mi Calm Calm - N/A   Overcast
4:35 AM 44.6 °F - 41.0 °F 87% 29.71 in 10.0 mi Calm Calm - N/A Rain Light Rain
4:55 AM 44.6 °F 43.1 °F 41.0 °F 87% 29.72 in 10.0 mi SSE 3.5 mph - N/A   Overcast
5:15 AM 44.6 °F 42.2 °F 41.0 °F 87% 29.74 in 10.0 mi SW 4.6 mph - N/A   Overcast
5:35 AM 44.6 °F 40.7 °F 41.0 °F 87% 29.74 in 7.0 mi WNW 6.9 mph - N/A   Overcast
6:15 AM 42.8 °F 35.4 °F 41.0 °F 93% 29.77 in 5.0 mi WSW 15.0 mph 19.6 mph N/A   Mostly Cloudy
6:35 AM 42.8 °F 41.1 °F 41.0 °F 93% 29.78 in 5.0 mi NNE 3.5 mph - N/A   Overcast
6:55 AM 42.8 °F - 41.0 °F 93% 29.79 in 5.0 mi Calm Calm - N/A   Mostly Cloudy
7:15 AM 42.8 °F - 41.0 °F 93% 29.80 in 5.0 mi Calm Calm - N/A   Overcast
7:35 AM 42.8 °F - 41.0 °F 93% 29.81 in 4.0 mi Calm Calm - N/A   Mostly Cloudy
8:15 AM 42.8 °F 39.3 °F 41.0 °F 93% 29.83 in 5.0 mi West 5.8 mph - N/A   Overcast
8:35 AM 44.6 °F - 41.0 °F 87% 29.83 in 5.0 mi Calm Calm - N/A   Overcast
8:55 AM 42.8 °F - 41.0 °F 93% 29.84 in 4.0 mi Calm Calm - N/A   Overcast
9:15 AM 44.6 °F - 41.0 °F 87% 29.85 in 4.0 mi Calm Calm - N/A   Overcast
9:35 AM 44.6 °F 41.4 °F 41.0 °F 87% 29.85 in 3.0 mi West 5.8 mph - N/A   Overcast
9:55 AM 44.6 °F 40.7 °F 41.0 °F 87% 29.85 in 3.0 mi West 6.9 mph - N/A   Overcast
10:15 AM 44.6 °F 40.2 °F 39.2 °F 81% 29.86 in 4.0 mi WNW 8.1 mph - N/A   Haze
10:35 AM 44.6 °F 40.2 °F 39.2 °F 81% 29.87 in 5.0 mi West 8.1 mph - N/A   Haze
10:55 AM 46.4 °F 42.9 °F 41.0 °F 81% 29.85 in 5.0 mi West 6.9 mph - N/A   Haze
11:15 AM 48.2 °F - 41.0 °F 76% 29.85 in 7.0 mi West 5.8 mph - N/A   Clear
11:35 AM 51.8 °F - 41.0 °F 67% 29.85 in 7.0 mi West 5.8 mph - N/A   Clear
11:55 AM - - - N/A% - - North - - N/A   Unknown
12:15 PM - - - N/A% - - North - - N/A   Unknown
12:35 PM 51.8 °F - 41.0 °F 67% 29.84 in 10.0 mi Calm Calm - N/A   Unknown
12:55 PM 53.6 °F - 41.0 °F 62% 29.84 in 10.0 mi WNW 5.8 mph - N/A   Clear
1:15 PM 55.4 °F - 41.0 °F 58% 29.84 in 10.0 mi West 5.8 mph - N/A   Clear
1:35 PM 53.6 °F - 41.0 °F 62% 29.83 in 10.0 mi West 5.8 mph - N/A   Clear
1:55 PM 55.4 °F - 41.0 °F 58% 29.82 in 10.0 mi WNW 4.6 mph - N/A   Clear
2:15 PM 55.4 °F - 39.2 °F 54% 29.81 in 10.0 mi West 6.9 mph - N/A   Clear
2:35 PM 55.4 °F - 37.4 °F 51% 29.80 in 10.0 mi West 5.8 mph - N/A   Clear
2:55 PM 55.4 °F - 37.4 °F 51% 29.80 in 10.0 mi Calm Calm - N/A   Clear
3:15 PM 55.4 °F - 37.4 °F 51% 29.80 in 10.0 mi SW 4.6 mph - N/A   Clear
3:35 PM 55.4 °F - 37.4 °F 51% 29.80 in 10.0 mi WSW 4.6 mph - N/A   Clear
3:55 PM 55.4 °F - 37.4 °F 51% 29.80 in 10.0 mi Calm Calm - N/A   Clear
6:35 PM 42.8 °F - 37.4 °F 81% 29.84 in 10.0 mi Calm Calm - N/A   Clear
6:55 PM 41.0 °F - 37.4 °F 87% 29.85 in 10.0 mi Calm Calm - N/A   Clear
7:15 PM 41.0 °F - 37.4 °F 87% 29.85 in 10.0 mi Calm Calm - N/A   Clear
7:35 PM 41.0 °F - 37.4 °F 87% 29.85 in 10.0 mi Calm Calm - N/A   Clear
7:55 PM 37.4 °F - 35.6 °F 93% 29.86 in 10.0 mi Calm Calm - N/A   Clear
8:15 PM 37.4 °F - 35.6 °F 93% 29.86 in 10.0 mi Calm Calm - N/A   Clear
8:35 PM 37.4 °F - 35.6 °F 93% 29.87 in 10.0 mi Calm Calm - N/A   Clear
8:55 PM 35.6 °F - 33.8 °F 93% 29.87 in 10.0 mi Calm Calm - N/A   Clear
9:15 PM 35.6 °F - 35.6 °F 100% 29.87 in 10.0 mi Calm Calm - N/A   Clear
9:35 PM 35.6 °F - 35.6 °F 100% 29.86 in 10.0 mi Calm Calm - N/A   Clear
9:55 PM 33.8 °F - 33.8 °F 100% 29.86 in 10.0 mi Calm Calm - N/A   Clear
10:15 PM 35.6 °F - 33.8 °F 93% 29.86 in 10.0 mi Calm Calm - N/A   Clear
10:35 PM 33.8 °F - 32.0 °F 93% 29.86 in 7.0 mi Calm Calm - N/A   Clear
10:55 PM 33.8 °F - 33.8 °F 100% 29.86 in 7.0 mi Calm Calm - N/A   Clear
11:15 PM 32.0 °F - 32.0 °F 100% 29.86 in 10.0 mi Calm Calm - N/A   Clear
11:35 PM 32.0 °F - 32.0 °F 100% 29.85 in 7.0 mi Calm Calm - N/A   Clear
11:55 PM 32.0 °F - 32.0 °F 100% 29.85 in 10.0 mi Calm Calm - N/A   Clear